Overview Statistics Trail Chart Weather Telemetry Raw packets
 

This is the latest recevied weather packets stored in our database for station/object W5CDN. If no packets are shown the sender has not sent any weather packets the latest 10 day(s).

<< 18 19 20 21 22 23 24 >>
Time Temp. Humidity Pressure Rain* Wind** Luminosity Snow
1788299955 36.11° C 45% 1011.8 hPa 0 mm - - -
1788299636 35.56° C 45% 1011.8 hPa 0 mm - - -
1788299336 35.56° C 46% 1012.1 hPa 0 mm - - -
1788299036 35.56° C 46% 1012.2 hPa 0 mm - - -
1788298757 36.67° C 46% 1012 hPa 0 mm - - -
1788298436 36.11° C 44% 1012.4 hPa 0 mm - - -
1788298136 37.22° C 45% 1012.1 hPa 0 mm - - -
1788297836 36.11° C 46% 1012.2 hPa 0 mm - - -
1788297536 36.11° C 46% 1012.4 hPa 0 mm - - -
1788297236 36.11° C 47% 1012.5 hPa 0 mm - - -
1788296936 35° C 47% 1012.4 hPa 0 mm - - -
1788296636 36.67° C 47% 1012.6 hPa 0 mm - - -
1788296336 36.67° C 46% 1012.6 hPa 0 mm - - -
1788296036 36.11° C 47% 1012.5 hPa 0 mm - - -
1788295736 35° C 49% 1012.8 hPa 0 mm - - -
1788295436 33.89° C 50% 1013 hPa 0 mm - - -
1788295136 35° C 50% 1013 hPa 0 mm - - -
1788294836 35° C 50% 1013 hPa 0 mm - - -
1788294536 35° C 49% 1012.8 hPa 0 mm - - -
1788294236 34.44° C 50% 1013.3 hPa 0 mm - - -
1788293936 34.44° C 51% 1013.4 hPa 0 mm - - -
1788293636 35.56° C 49% 1013 hPa 0 mm - - -
1788293336 35.56° C 49% 1013 hPa 0 mm - - -
1788293036 35° C 48% 1013.1 hPa 0 mm - - -
1788292736 35° C 49% 1013.4 hPa 0 mm - - -

* Rain latest hour (hover to see other rain measurements)
** Current wind speed in m/s (hover to see current wind gust speed)